Tekamah, NE

8:55 AM CDT on July 25, 2017 (GMT -0500)
Tekamah

Weather History for KTQE - October, 2012

Change the Weather History Date:

Sunday, October 28, 2012

  Actual Average Record
Temperature  
Mean Temperature 42 °F -  
Max Temperature 54 °F 60 °F 82 °F (2016)
Min Temperature 32 °F 36 °F 17 °F (1967)
Degree Days  
Heating Degree Days 22    
Moisture  
Dew Point 30 °F    
Average Humidity 63    
Maximum Humidity 85    
Minimum Humidity 41    
Precipitation  
Precipitation 0.00 in - - ()
Sea Level Pressure  
Sea Level Pressure 30.26 in    
Wind  
Wind Speed 8 mph (SSE)    
Max Wind Speed 16 mph    
Max Gust Speed 26 mph    
Visibility 9 miles    
Events      
Averages and records for this station are not official NWS values.
T = Trace of Precipitation, MM = Missing Value Source: NWS Daily Summary

Daily Weather History Graph

Daily Weather History Graph

Search for Another Location

Airport or City:

Trip Planner

Search our weather history database for the weather conditions in past years. The results will help you decide how hot, cold, wet, or windy it might be!

Date:

Astronomy

Oct. 28, 2012 Rise Set
Actual Time 7:52 AM CDT 6:23 PM CDT
Civil Twilight 7:24 AM CDT 6:52 PM CDT
Nautical Twilight 6:51 AM CDT 7:24 PM CDT
Astronomical Twilight 6:18 AM CDT 7:57 PM CDT
Moon 5:42 PM CDT (10/28) 6:46 AM CDT (10/28)
Length of Visible Light 11h 28m
Length of Day
10h 30m
Waxing Gibbous, 99% of the Moon is Illuminated
Oct 28
Waxing Gibbous
Oct 29
Full
Nov 6
Last Quarter
Nov 13
New
Nov 20
First Quarter

Hourly Weather History & Observations

Time (CDT) Temp. Windchill Dew Point Humidity Pressure Visibility Wind Dir Wind Speed Gust Speed Precip Events Conditions
12:54 AM 37.0 °F 33.3 °F 28.9 °F 73% 30.31 in 10.0 mi SE 4.6 mph - N/A   Overcast
1:54 AM 37.0 °F 31.6 °F 28.0 °F 70% 30.30 in 10.0 mi ESE 6.9 mph - N/A   Overcast
2:54 AM 37.0 °F 31.6 °F 28.9 °F 73% 30.29 in 9.0 mi ESE 6.9 mph - N/A   Overcast
3:54 AM 36.0 °F 33.3 °F 30.0 °F 79% 30.30 in 8.0 mi South 3.5 mph - N/A   Overcast
4:54 AM 36.0 °F 31.1 °F 30.0 °F 79% 30.29 in 8.0 mi SSE 5.8 mph - N/A   Overcast
5:54 AM 36.0 °F 31.1 °F 30.0 °F 79% 30.29 in 8.0 mi SSE 5.8 mph - N/A   Overcast
6:54 AM 34.0 °F 28.8 °F 30.0 °F 85% 30.30 in 7.0 mi SE 5.8 mph - N/A   Overcast
7:54 AM 32.0 °F 24.8 °F 27.0 °F 82% 30.31 in 7.0 mi SE 8.1 mph - N/A   Clear
8:54 AM 34.0 °F 29.8 °F 28.9 °F 82% 30.33 in 6.0 mi SSE 4.6 mph - N/A   Haze
9:54 AM 39.9 °F 33.4 °F 30.9 °F 70% 30.33 in 8.0 mi South 10.4 mph - N/A   Clear
10:54 AM 45.0 °F 38.5 °F 30.9 °F 58% 30.32 in 9.0 mi South 13.8 mph - N/A   Clear
12:54 PM 51.1 °F - 30.9 °F 46% 30.27 in 10.0 mi South 11.5 mph - N/A   Clear
1:54 PM 52.0 °F - 30.9 °F 45% 30.25 in 10.0 mi South 15.0 mph 26.5 mph N/A   Clear
2:54 PM 53.1 °F - 30.0 °F 41% 30.22 in 10.0 mi South 16.1 mph - N/A   Clear
3:54 PM 53.1 °F - 30.0 °F 41% 30.22 in 10.0 mi SSE 13.8 mph - N/A   Clear
4:54 PM 51.1 °F - 30.9 °F 46% 30.21 in 10.0 mi SSE 13.8 mph - N/A   Mostly Cloudy
5:54 PM 50.0 °F - 30.0 °F 46% 30.20 in 10.0 mi SE 15.0 mph - N/A   Mostly Cloudy
6:54 PM 45.0 °F 40.1 °F 30.9 °F 58% 30.21 in 10.0 mi SE 9.2 mph - N/A   Mostly Cloudy
7:54 PM 45.0 °F 38.9 °F 30.9 °F 58% 30.22 in 10.0 mi SE 12.7 mph - N/A   Overcast
8:54 PM 44.1 °F 37.7 °F 30.9 °F 60% 30.22 in 10.0 mi SE 12.7 mph - N/A   Partly Cloudy
9:54 PM 44.1 °F 38.1 °F 30.9 °F 60% 30.22 in 10.0 mi SE 11.5 mph - N/A   Overcast
10:54 PM 44.1 °F 38.1 °F 30.9 °F 60% 30.23 in 10.0 mi SE 11.5 mph - N/A   Overcast
11:54 PM 44.1 °F 38.1 °F 30.9 °F 60% 30.24 in 10.0 mi SE 11.5 mph - N/A   Overcast